Weather in Baboshino

Russia / Tula Oblast     54°13′11″N   37°07′57″E
temp.,
°C
wind,
m/s
gust,
m/s
humid.,
%
clouds,
%
prec.,
mm/h
press.,
hPa
HPBL,
m
19 april, mon
mon1900:00+6ne599199 0.4 1019327
03:00+5ene499698 0.4 1020279
06:00+5ne5993100 0.1 1020443
09:00+7ene71086100 0.1 1020619
12:00+6ene71088100 0.0 1021921
15:00+6ene61091100 1.1 1021926
18:00+5ne61296100 2.8 10201058
21:00+4ene71397100 5.5 10201048
20 april, tue
tue2000:00+3ene71297100 1.3 1020735
03:00+4ene71394100 2.2 1019653
06:00+4e71392100 0.1 1018649
09:00+5e71191100 0.1 1018707
12:00+4e61096100 0.0 1018588
15:00+4ene61196100 0.0 1016568
18:00+3ene71296100 0.0 1013583
21:00+3ene81495100 0.9 1009645
21 april, wed
wed2100:00+1ne81798100 8.3 1004761
03:00+4ene613100100 11.8 999583
06:00+7ese51199100 6.5 995405
09:00+3sse2397100 10.3 997671
12:00+2wsw91597100 0.8 1002658
15:00+4wsw81391100 0.8 10061020
18:00+6sw51186100 0.0 1009713
21:00+5ssw3893100 0.2 1012227
22 april, thu
thu2200:00+3ssw41094100 0.1 1013243
03:00+2ssw399365 0.1 1014207
06:00+3s4993100 0.0 1015257
09:00+7ssw4685100 0.0 1016465
12:00+10sw577285 0.1 10161150
15:00+13sw465428 0.1 10161689
18:00+11s5872100 0.2 1017714
21:00+8sse498826 0.3 1017184
23 april, fri
fri2300:00+7s39908 0.0 1017159
03:00+6s3109151 0.0 1017178
06:00+6s4109358 0.0 1017197
09:00+11s6107575 0.0 1017495
12:00+15s8115960 0.0 10161502
15:00+16s8125813 1.6 10141817
18:00+14s6116592 1.5 1014671
21:00+10sse5137955 1.6 1013332